Preview of NWS' New Version of Forecast
This preview is not operational and should not be used for support decisions.

Regional Weather Roundup (RWR)

Issued by National Weather Service (NWS)

                            
000
ASUS43 KMKX 190000
RWRWI 

WISCONSIN REGIONAL WEATHER ROUNDUP
NATIONAL WEATHER SERVICE MILWAUKEE/SULLIVAN WI
700 PM CDT WED SEP 18 2019

NOTE: "FAIR" INDICATES FEW OR NO CLOUDS BELOW 12,000 FEET WITH NO
SIGNIFICANT WEATHER AND/OR OBSTRUCTIONS TO VISIBILITY.

WIZ001-002-006>008-014>016-023>028-190100-
NORTHWEST WISCONSIN
  
CITY           SKY/WX    TMP DP  RH WIND       PRES   REMARKS
SUPERIOR ARPT  MOCLDY    75  67  76 SW3       29.80R                  
6HR MIN TEMP:  75; 6HR MAX TEMP:  82;                                

ASHLAND        CLOUDY    77  65  66 S10       29.84R                  
6HR MIN TEMP:  76; 6HR MAX TEMP:  81;                                

HAYWARD        CLOUDY    76  64  66 SW12      29.89R                  
6HR MIN TEMP:  73; 6HR MAX TEMP:  80;                                

SIREN          FAIR      77  66  70 SW14      29.86R                  
CUMBERLAND     FAIR      73  63  68 SW12G17   29.90R                  
RICE LAKE      MOCLDY    75  65  71 S7        29.92R                  
6HR MIN TEMP:  73; 6HR MAX TEMP:  81;                                

CHETEK         FAIR      75  65  71 S7        29.91R                  
LADYSMITH      FAIR      75  66  73 S9        29.94R                  
6HR MIN TEMP:  73; 6HR MAX TEMP:  80;                                

EAU CLAIRE     NOT AVBL                                               
MENOMONIE      FAIR      71  62  73 SE7       29.91S                  
6HR MIN TEMP:  69; 6HR MAX TEMP:  78; 6HR PCP:  0.01;                

NEW RICHMOND   FAIR      76  66  69 SW9       29.89S                  
OSCEOLA        FAIR      78  69  73 S8        29.90S HX  80           
$$
 
WIZ003>005-009-010-017-018-190100-
NORTH CENTRAL WISCONSIN
  
CITY           SKY/WX    TMP DP  RH WIND       PRES   REMARKS
MANITOWISH WTR FAIR      72  66  82 S8        29.93R                  
6HR MIN TEMP:  72; 6HR MAX TEMP:  77;                                

ARBOR VITAE    FAIR      74  69  84 S10G18    29.93F                  
WOODRUFF       FAIR      74  69  84 S10G18    29.93F                  
RHINELANDER    FAIR      73  66  78 S8        29.97S                  
6HR MIN TEMP:  73; 6HR MAX TEMP:  76;                                

EAGLE RIVER    FAIR      73  64  74 S9        29.94F                  
LAND O LAKES   FAIR      73  65  76 S8        29.95F                  
6HR MIN TEMP:  73; 6HR MAX TEMP:  80;                                

PHILLIPS       FAIR      74  66  76 S8        29.92S                  
6HR MIN TEMP:  73; 6HR MAX TEMP:  77;                                

TOMAHAWK       FAIR      71  66  83 CALM      29.96S                  
MEDFORD        FAIR      72  67  84 S12       29.97R                  
MERRILL        CLOUDY    74  69  82 S8        29.98R                  
6HR MIN TEMP:  74; 6HR MAX TEMP:  78;                                

$$
 
WIZ029-030-035-036-043>047-190100-
CENTRAL WISCONSIN
  
CITY           SKY/WX    TMP DP  RH WIND       PRES   REMARKS
WAUSAU         FAIR      73  68  84 S8        29.97R                  
6HR MIN TEMP:  73; 6HR MAX TEMP:  77;                                

MOSINEE        CLOUDY    73  72  94 S9        30.00R                  
MARSHFIELD     FAIR      74  69  85 S7        29.97R                  
6HR MIN TEMP:  74; 6HR MAX TEMP:  79;                                

STEVENS POINT  FAIR      73  67  79 S6        30.00R                  
WAUPACA        FAIR      76  66  71 SE7       30.00R                  
6HR MIN TEMP:  76; 6HR MAX TEMP:  82;                                

WAUTOMA        NOT AVBL                                               
WISC RAPIDS    NOT AVBL                                               
CAMP DOUGLAS   FAIR      76  72  87 SE3       29.98R                  
6HR MIN TEMP:  76; 6HR MAX TEMP:  82;                                

$$
 
WIZ011>013-019>022-031-037>040-048>050-190100-
NORTHEAST WISCONSIN
  
CITY           SKY/WX    TMP DP  RH WIND       PRES   REMARKS
ANTIGO         FAIR      70  66  88 S9        30.01R                  
6HR MIN TEMP:  70; 6HR MAX TEMP:  76;                                

SHAWANO        FAIR      74  64  69 SE5       29.99R                  
6HR MIN TEMP:  74; 6HR MAX TEMP:  82;                                

OCONTO         FAIR      69  64  82 S10G17    30.00F                  
STURGEON BAY   FAIR      67  62  84 S15       30.03S                  
6HR MIN TEMP:  66; 6HR MAX TEMP:  73;                                

GREEN BAY      FAIR      71  64  78 S12       30.01F                  
6HR MIN TEMP:  71; 6HR MAX TEMP:  81;                                

MANITOWOC      FAIR      67  63  87 S14       30.05S                  
6HR MIN TEMP:  66; 6HR MAX TEMP:  70;                                

APPLETON       MOCLDY    72  59  64 S9        30.00S                  
CLINTONVILLE   NOT AVBL                                               
OSHKOSH        FAIR      72  66  81 SE8       30.01S                  
6HR MIN TEMP:  72; 6HR MAX TEMP:  80;                                

$$
 
WIZ032>034-041-042-053>061-190100-
SOUTHWEST WISCONSIN
  
CITY           SKY/WX    TMP DP  RH WIND       PRES   REMARKS
LA CROSSE      FAIR      79  70  74 S7        29.93S HX  82           
6HR MIN TEMP:  77; 6HR MAX TEMP:  83; 6HR PCP: TRACE;                

SPARTA         FAIR      75  69  80 SE5       29.96F                  
VIROQUA        FAIR      75  73  95 SE8       29.99F                  
6HR MIN TEMP:  75; 6HR MAX TEMP:  79;                                

BOSCOBEL       FAIR      79  70  74 VRB5      29.98R HX  82           
6HR MIN TEMP:  79; 6HR MAX TEMP:  84;                                

PRAIRIE DU CHI FAIR      78  68  69 SE5       29.96S HX  81           
PLATTEVILLE    FAIR      76  72  87 SE8       30.00R                  
6HR MIN TEMP:  76; 6HR MAX TEMP:  83;                                

$$

WIZ056-057-062-063-064-067-068-190100-
SOUTH CENTRAL WISCONSIN
  
CITY           SKY/WX    TMP DP  RH WIND       PRES   REMARKS
REEDSBURG      FAIR      76  69  79 SE7       29.98S                  
BARABOO/DELLS  FAIR      73  67  79 S6        30.00R                  
6HR MIN TEMP:  73; 6HR MAX TEMP:  82;                                

LONE ROCK      FAIR      78  69  73 CALM      29.99R HX  80           
6HR MIN TEMP:  78; 6HR MAX TEMP:  83;                                

MINERAL POINT  FAIR      77  72  83 S7        30.01R                  
MADISON        MOCLDY    77  66  68 S10       30.01R                  
6HR MIN TEMP:  77; 6HR MAX TEMP:  82;                                

MIDDLETON      FAIR      78  66  65 S10G16    30.01S HX  80           
WATERTOWN      FAIR      74  64  73 S6        30.03R                  
MONROE         FAIR      75  66  73 S12G17    30.01F                  
JANESVILLE     PTCLDY    77  64  65 S10       30.02F                  
$$
 
WIZ051-052-058>065-066-070>072-190100-
SOUTHEAST WISCONSIN
  
CITY           SKY/WX    TMP DP  RH WIND       PRES   REMARKS
MILWAUKEE      MOCLDY    73  61  65 S14       30.04F                  
6HR MIN TEMP:  73; 6HR MAX TEMP:  76;                                

WAUKESHA       CLEAR     70  63  78 SE13      30.05F                  
MILWAUKEE/TIMM CLEAR     73  57  56 S12       30.04F                  
RACINE         FAIR      72  62  71 S12       30.07F                  
6HR MIN TEMP:  72; 6HR MAX TEMP:  75;                                

KENOSHA        FAIR      73  64  73 SE10      30.06F                  
6HR MIN TEMP:  73; 6HR MAX TEMP:  81;                                

FOND DU LAC    FAIR      74  66  76 SE6       30.02R                  
6HR MIN TEMP:  74; 6HR MAX TEMP:  81;                                

SHEBOYGAN      FAIR      68  61  78 S9        30.04S                  
6HR MIN TEMP:  68; 6HR MAX TEMP:  74;                                

WEST BEND      FAIR      70  64  83 SE7       30.03S                  
JUNEAU         FAIR      74  64  69 S6        30.04R                  
6HR MIN TEMP:  74; 6HR MAX TEMP:  80;                                

$$

LSZ147-162-190100-
LAKE SUPERIOR
  
STATION/POSITION TIME  TEMP    WIND        PRES    WAVE
                       AIR SEA DIR/SP/G            HT/PER
                 (UTC) (F)     (DEG/KT/KT) (MB)    (FT/S)
W MID LAKE BUOY  2250   62 54  180/  8/ 10 1009.3R   1/ 3
DEVILS ISLAND    2300   68     240/  6/  7 1009.4R
SAXON HARBOR     2340   79     200/  7/ 13 1010.2R
$$
 
LMZ867-665-643>646-190100-
LAKE MICHIGAN
  
STATION/POSITION TIME  TEMP    WIND        PRES    WAVE
                       AIR SEA DIR/SP/G            HT/PER
                 (UTC) (F)     (DEG/KT/KT) (MB)    (FT/S)
CHAMBERS ISLAND  2340   67     110/  7/ 14   N/A
N MID LAKE BUOY  2340   66 62  200/ 14/ 16 1017.5R
NORTHPORT PIER   2340   67     140/ 11/ 17 1016.3S
KEWAUNEE LAKESHO 2330   64     180/ 12/ 13 1016.7S
SHEBOYGAN LAKESH 2300   63     190/ 14/ 15 1017.3F
PORT WASHINGTON  2340   64     190/  6/  9 1018.3S
ATWATER BUOY     2330   63 59  180/ 12/ 14 1017.4F   2/ 4
MILWAUKEE LAKESH 2330   71     150/ 11/ 12   N/A
S MID LAKE BUOY  2340   70 68  120/ 10/ 12 1018.4F
KENOSHA   LAKESH 2300   69     170/ 10/ 11 1017.9
$$

TC  - TEMPERATURE IN CELSIUS
VSB - VISIBILITY IN STATUTE MILES
WCI - WIND CHILL INDEX
HX  - HEAT INDEX